Wind_Speed
11 11 9 8 10 15 14 10 12 13 13 13 12 11 10 11 11 11 9 9 9 11 12 12 12 12 11 10 10 8 8 8 8 7 6 5 4 3 2 1 1 1 1 0 1 1 1 1 1
10 9 8 8 13 16 11 11 14 14 14 13 12 11 11 11 11 12 12 11 10 12 12 13 13 13 12 11 10 9 9 9 8 8 7 6 5 4 3 2 2 2 2 1 2 2 2 2 2
9 8 9 11 15 13 9 13 15 15 14 13 13 13 12 12 12 12 12 12 12 12 13 13 14 14 14 12 11 10 10 9 9 8 8 7 6 5 4 3 3 3 3 2 2 2 2 2 2
8 7 9 12 11 7 8 12 14 14 14 14 13 12 12 12 12 13 13 13 12 13 14 14 14 15 14 13 12 11 11 10 10 9 8 7 6 6 5 4 3 3 3 3 3 3 3 3 3
7 8 11 11 9 6 11 13 13 13 13 14 14 13 12 14 13 12 13 13 12 13 14 14 15 15 15 14 13 12 12 11 10 9 9 8 6 6 5 4 4 4 4 4 3 3 3 3 3
6 8 11 10 7 8 12 14 13 13 15 16 15 15 13 14 13 12 12 13 12 13 14 15 15 16 16 16 14 13 12 11 10 10 9 8 6 6 5 5 4 4 4 4 4 3 3 3 3
6 7 7 7 6 10 12 13 13 13 15 16 16 16 16 15 13 12 12 13 12 12 14 14 15 16 16 16 15 14 13 12 11 10 9 8 7 6 6 5 5 5 4 4 4 3 3 3 3
5 4 5 6 5 8 12 13 14 14 14 15 15 17 17 16 15 13 13 13 11 11 14 14 15 17 17 16 16 15 14 13 12 10 9 8 7 6 6 5 5 5 4 4 4 3 3 3 3
5 6 7 6 5 9 12 12 13 16 17 16 15 17 17 17 16 15 15 15 13 13 14 15 16 18 17 16 16 16 15 13 12 11 9 8 7 6 6 5 5 5 4 4 4 4 4 4 4
3 4 5 3 9 10 11 13 13 16 20 21 20 20 19 18 17 16 16 15 14 13 14 15 17 18 17 17 17 16 16 14 13 11 10 9 7 7 6 6 5 4 4 4 4 4 4 4 4
2 0 3 6 9 10 11 13 14 17 21 24 26 23 22 19 18 18 16 14 12 11 14 15 16 17 18 18 17 17 17 15 13 12 11 9 8 7 6 6 5 4 5 4 4 4 4 4 4
5 4 5 7 9 10 11 12 13 15 19 23 25 25 23 20 19 18 15 13 12 13 14 16 17 18 19 19 18 18 17 15 14 12 11 9 7 7 6 6 5 5 5 4 3 3 3 3 3
7 7 7 8 9 10 12 14 14 13 17 23 25 24 23 21 18 17 15 14 13 13 14 16 17 18 17 18 19 18 17 15 14 12 10 9 7 7 6 6 5 5 4 3 2 2 2 2 3
6 7 7 7 7 10 14 17 19 16 20 24 25 24 22 20 17 16 16 14 14 13 13 15 16 18 19 20 20 18 16 15 13 12 10 9 8 7 7 6 5 3 3 2 2 2 2 2 2
5 4 4 6 6 9 14 17 21 19 22 25 24 23 21 18 16 15 15 15 15 14 14 15 16 18 19 20 20 19 16 15 14 12 11 9 8 7 6 5 5 3 3 3 2 2 2 1 1
3 4 8 10 6 10 14 18 23 18 21 25 25 23 21 18 17 15 15 15 15 14 15 14 14 16 16 18 19 18 17 16 15 13 12 10 9 7 6 5 5 4 3 3 2 2 2 1 1
4 8 10 10 9 11 14 18 23 21 23 25 25 23 21 18 17 16 15 14 14 13 14 14 13 15 15 16 18 17 17 16 15 13 12 11 10 8 7 6 5 5 4 3 2 2 2 1 1
8 10 12 10 10 13 16 16 19 21 23 25 25 23 21 18 17 16 14 13 12 11 12 13 13 15 16 16 18 18 17 17 16 14 13 12 11 9 8 7 6 5 4 3 2 2 1 0 1
11 13 13 12 11 15 17 15 16 21 22 24 25 24 22 20 18 15 14 13 11 9 10 11 13 14 15 15 16 18 18 17 16 15 13 12 11 10 9 7 6 5 5 4 3 2 1 1 1
15 16 14 14 14 15 16 14 16 20 20 22 23 22 22 20 18 15 14 12 10 9 9 10 11 13 14 16 16 18 19 17 16 15 14 13 12 10 10 8 7 6 5 4 3 2 2 1 1
16 15 13 15 15 14 15 16 18 20 21 19 20 21 21 20 18 16 14 12 10 8 8 10 9 10 13 15 16 17 18 17 15 15 14 14 13 12 11 10 8 7 7 5 4 3 3 3 2
16 13 14 15 16 15 15 17 17 21 21 20 20 20 21 19 18 16 14 12 10 7 7 9 9 10 12 14 16 17 17 17 16 15 14 14 14 14 13 11 10 9 8 7 6 5 5 4 4
15 15 16 17 17 16 14 15 17 18 20 22 22 21 20 19 18 16 14 12 10 7 7 7 8 10 11 12 15 16 17 17 16 15 15 15 15 14 13 12 11 10 10 9 8 8 7 6 6
16 16 17 15 14 13 13 14 15 15 20 22 22 21 19 18 18 16 13 12 10 6 5 5 7 9 10 11 13 15 17 17 16 16 16 16 15 15 15 14 12 12 11 11 10 10 10 9 9
15 15 14 13 14 16 15 14 12 15 18 21 21 20 17 17 17 15 13 12 9 6 4 3 5 7 9 11 13 14 16 17 17 16 16 16 16 16 15 14 14 13 13 13 13 13 12 12 12
15 15 15 15 17 18 18 15 12 12 16 20 20 18 16 16 15 14 13 12 9 6 4 3 5 7 9 10 12 14 15 16 17 17 16 16 17 16 16 16 15 15 15 15 15 15 15 15 16
15 16 14 17 18 19 18 14 13 14 18 18 17 17 16 15 15 15 13 12 10 6 4 3 4 6 7 8 10 13 14 16 17 17 17 17 17 17 16 16 17 17 17 16 16 17 17 18 18
16 15 15 17 18 18 15 15 16 17 17 17 17 17 17 15 15 14 13 11 9 6 4 3 3 4 6 7 8 11 13 16 17 17 18 18 17 16 16 17 17 18 18 18 18 19 19 20 21
15 16 17 18 18 17 17 18 20 19 18 13 17 18 18 16 15 14 13 11 9 6 4 4 4 5 6 8 9 11 12 13 15 16 17 17 17 17 18 18 19 19 20 21 21 21 21 22 23
17 16 17 20 20 20 20 20 21 20 15 13 16 20 19 17 16 14 13 11 10 7 5 4 4 5 7 8 9 9 11 12 13 14 15 17 18 18 19 21 20 21 21 22 22 22 23 23 24
Wind_Direction
45 44 46 57 61 52 47 355 335 332 331 329 329 319 311 304 299 289 290 280 253 241 232 227 223 217 216 217 218 218 228 236 240 243 242 237 233 233 241 257 271 291 310 310 298 297 299 298 300
47 45 49 46 55 47 26 338 330 333 333 332 328 321 309 306 304 295 290 277 260 249 239 234 229 224 221 220 222 226 233 240 245 248 246 242 241 246 257 271 275 280 288 293 294 289 286 283 284
46 49 55 51 51 39 357 326 329 335 338 336 328 321 312 308 307 299 290 275 259 247 241 235 232 230 225 222 225 230 236 242 247 248 249 248 247 254 265 274 279 283 288 293 294 285 276 277 277
43 53 57 60 59 28 331 324 332 339 339 338 330 320 314 310 307 300 290 277 259 247 241 238 236 232 227 224 225 230 237 244 246 248 250 250 253 259 266 271 277 284 289 291 289 282 277 273 271
38 43 48 55 56 1 323 327 337 340 337 337 334 321 320 317 309 302 291 278 263 250 243 240 237 232 229 226 225 230 238 243 245 246 249 252 255 261 266 270 276 282 287 286 282 278 274 267 265
30 47 49 35 31 332 325 333 338 337 337 337 333 325 323 317 314 307 296 281 266 254 245 241 238 233 229 228 227 230 235 241 244 246 250 252 254 261 268 273 278 284 284 282 279 276 275 267 261
35 46 55 38 353 322 322 328 330 333 332 333 332 325 324 322 319 308 297 284 267 249 244 238 237 231 228 227 228 231 233 237 242 246 251 252 256 262 267 270 277 281 280 279 280 281 278 268 263
46 57 80 65 335 316 313 323 327 327 325 328 325 321 326 328 321 307 296 286 269 252 243 235 237 231 228 226 226 227 230 234 239 243 247 250 256 260 264 270 278 280 278 277 281 284 283 278 268
65 77 62 35 313 299 306 317 321 324 323 322 320 320 326 328 324 312 300 289 274 254 247 245 237 230 225 225 224 225 228 230 234 238 242 248 252 256 262 271 277 280 281 281 281 281 281 278 267
72 74 48 325 289 292 307 318 322 318 316 319 323 328 325 324 320 314 302 292 278 256 249 245 235 225 223 224 224 224 227 229 233 237 241 243 246 252 259 265 270 276 282 286 286 283 280 277 272
349 303 285 286 292 303 316 321 321 317 318 323 323 325 324 319 316 313 306 293 281 267 257 248 237 228 223 221 224 226 227 228 234 239 241 242 245 249 253 261 267 277 280 284 284 284 286 279 273
322 304 278 282 297 313 322 318 312 311 319 325 325 325 324 318 313 309 303 291 280 281 267 253 246 235 225 221 225 227 227 229 232 235 238 241 246 248 251 260 271 281 282 278 285 286 287 284 280
307 309 307 302 305 317 317 314 305 304 324 328 327 324 324 319 313 305 301 290 283 277 265 253 241 230 223 224 225 226 226 228 231 233 237 239 245 253 254 255 267 278 278 276 302 312 306 296 289
293 289 290 294 305 320 318 314 312 325 335 333 328 326 324 318 314 305 302 296 291 280 264 256 238 227 221 220 223 224 224 227 229 233 236 243 250 254 257 258 260 269 274 272 282 301 308 305 298
310 310 307 296 309 314 312 313 317 330 334 334 331 327 327 321 314 308 304 295 289 278 268 255 239 229 226 222 222 224 223 225 228 231 236 244 252 257 256 254 258 268 284 285 283 289 306 316 305
359 334 310 305 310 309 314 311 315 327 328 331 333 330 327 324 318 313 303 296 287 276 268 258 245 234 229 225 222 222 219 221 225 230 237 243 246 253 255 251 257 260 266 272 283 293 297 305 320
339 303 297 300 306 302 304 306 315 327 327 330 334 334 332 325 320 317 309 301 292 275 262 258 252 239 234 226 218 217 218 218 223 229 236 241 241 244 247 248 251 249 256 262 267 277 278 301 339
293 293 290 285 288 290 298 302 313 318 323 328 333 334 334 330 325 321 317 308 299 283 263 255 246 240 233 228 220 217 216 218 223 227 234 235 233 235 240 241 241 240 245 250 256 262 261 267 52
274 271 271 274 276 287 294 299 306 307 317 328 333 334 335 334 331 326 320 314 306 290 270 255 246 239 233 228 224 217 217 220 223 227 231 232 234 233 232 234 233 234 239 242 248 251 233 204 122
266 263 260 260 266 278 289 296 295 300 313 328 333 334 335 336 335 330 328 321 309 291 273 258 251 242 231 228 223 215 215 217 221 224 228 230 230 230 229 228 230 232 233 233 234 228 219 213 176
264 263 257 263 272 280 289 295 293 304 312 327 332 333 335 339 340 337 333 326 314 294 270 261 249 236 228 227 222 216 216 218 221 224 226 224 225 227 226 224 227 232 232 231 230 228 228 231 233
264 261 260 265 274 272 272 287 295 302 309 324 330 331 334 339 342 340 338 332 317 293 272 257 244 229 225 227 221 218 216 217 218 221 222 222 224 225 225 225 227 231 233 231 232 236 238 240 247
258 251 255 261 267 264 267 279 289 303 314 321 327 328 333 338 342 345 343 339 331 306 278 257 235 229 227 225 219 216 218 217 218 221 222 223 223 223 225 225 227 232 234 235 236 240 242 247 254
259 253 255 257 264 270 275 272 275 290 304 315 319 323 331 335 338 343 346 344 340 326 285 244 230 229 226 221 214 214 214 216 217 220 224 224 223 223 225 227 228 232 236 236 239 243 247 251 257
256 258 254 260 269 272 272 268 260 276 297 307 314 319 326 332 336 340 344 345 342 332 301 242 222 220 219 218 213 212 213 213 215 220 222 224 225 225 226 228 231 234 238 241 244 248 253 257 262
244 250 252 254 268 281 291 285 276 278 294 305 311 316 321 328 336 341 344 346 343 334 308 241 221 219 215 215 214 215 216 216 217 221 224 225 225 228 230 233 235 238 241 245 249 251 256 261 265
241 241 249 260 267 280 288 293 298 280 288 299 307 313 318 322 329 337 343 341 340 328 313 269 229 220 219 219 219 216 219 219 220 224 225 225 226 230 235 237 240 242 245 249 252 255 260 264 268
244 235 239 245 258 266 274 277 266 264 276 285 298 308 313 317 322 329 335 338 338 331 313 286 236 221 221 218 215 215 217 220 223 225 227 227 230 232 236 240 243 245 248 252 256 260 263 267 270
249 237 233 237 244 256 266 272 278 284 279 287 301 304 306 311 317 321 329 332 335 334 315 294 266 245 233 223 223 220 221 224 226 229 232 233 235 238 241 244 246 250 254 256 260 263 265 268 271
245 243 243 243 242 242 253 269 279 292 287 279 288 295 298 300 308 313 318 323 327 323 313 288 271 249 235 228 228 229 227 228 231 234 237 240 244 245 246 248 251 254 258 260 262 264 267 270 272
Height
5891 5890 5889 5888 5887 5886 5887 5889 5887 5884 5883 5881 5880 5878 5877 5876 5876 5876 5873 5873 5875 5876 5877 5878 5879 5881 5882 5883 5885 5886 5887 5888 5888 5888 5889 5889 5889 5889 5888 5888 5888 5888 5888 5888 5888 5888 5887 5887 5887
5892 5891 5890 5887 5884 5887 5890 5889 5887 5885 5883 5881 5879 5878 5876 5875 5874 5873 5872 5873 5874 5875 5876 5877 5879 5880 5881 5883 5884 5886 5887 5887 5888 5888 5889 5889 5889 5889 5889 5888 5888 5888 5888 5888 5888 5888 5888 5887 5887
5892 5892 5890 5888 5886 5890 5892 5890 5887 5885 5882 5881 5879 5878 5875 5874 5873 5872 5872 5872 5873 5874 5875 5876 5877 5879 5880 5882 5884 5885 5886 5887 5888 5888 5889 5889 5889 5889 5888 5888 5888 5888 5888 5888 5888 5888 5887 5887 5887
5893 5892 5889 5889 5890 5893 5893 5890 5887 5885 5883 5881 5879 5877 5875 5873 5872 5872 5871 5870 5871 5872 5873 5875 5876 5878 5879 5881 5883 5884 5885 5886 5887 5888 5888 5888 5888 5888 5888 5888 5888 5888 5888 5888 5888 5888 5887 5887 5887
5893 5892 5891 5890 5891 5894 5893 5890 5887 5885 5882 5880 5878 5874 5872 5872 5871 5870 5869 5868 5869 5871 5871 5873 5874 5876 5878 5879 5881 5883 5884 5885 5886 5887 5888 5888 5888 5888 5888 5887 5887 5888 5888 5887 5887 5887 5887 5887 5887
5893 5892 5891 5891 5892 5895 5893 5890 5887 5885 5882 5880 5878 5875 5873 5872 5870 5869 5867 5867 5867 5869 5869 5870 5872 5874 5876 5878 5880 5881 5883 5884 5885 5886 5887 5887 5887 5887 5887 5887 5887 5887 5887 5887 5887 5887 5887 5887 5887
5894 5892 5891 5892 5895 5896 5894 5890 5888 5886 5883 5880 5878 5874 5871 5870 5869 5868 5866 5865 5864 5865 5865 5867 5869 5871 5873 5876 5878 5880 5882 5883 5884 5885 5886 5887 5887 5887 5886 5886 5886 5887 5887 5887 5887 5887 5886 5886 5887
5893 5893 5891 5893 5896 5896 5893 5890 5887 5885 5883 5880 5877 5873 5871 5869 5867 5865 5864 5862 5862 5862 5860 5862 5866 5869 5871 5874 5876 5878 5880 5881 5883 5884 5885 5886 5886 5886 5886 5886 5886 5886 5886 5886 5886 5886 5886 5886 5886
5893 5894 5892 5894 5896 5895 5892 5890 5887 5884 5880 5877 5874 5872 5869 5868 5865 5864 5862 5860 5860 5860 5860 5861 5864 5866 5869 5871 5874 5876 5878 5880 5882 5883 5884 5885 5885 5885 5885 5885 5885 5885 5885 5886 5886 5886 5886 5886 5886
5893 5893 5893 5894 5895 5893 5891 5888 5886 5883 5879 5874 5872 5870 5868 5865 5864 5861 5859 5857 5856 5858 5859 5860 5861 5863 5867 5869 5871 5874 5877 5879 5880 5882 5883 5884 5884 5884 5885 5885 5885 5885 5885 5885 5885 5885 5885 5885 5885
5892 5892 5893 5893 5893 5891 5889 5888 5886 5882 5878 5875 5871 5868 5865 5863 5861 5859 5857 5855 5853 5854 5856 5857 5858 5861 5864 5867 5869 5872 5875 5877 5879 5881 5882 5882 5883 5883 5884 5884 5884 5884 5884 5884 5884 5884 5884 5885 5885
5891 5891 5891 5891 5890 5889 5888 5886 5884 5881 5877 5873 5869 5864 5862 5861 5859 5856 5854 5852 5850 5851 5852 5854 5856 5858 5860 5864 5867 5870 5873 5875 5877 5879 5880 5881 5882 5883 5883 5883 5883 5883 5883 5884 5884 5884 5884 5884 5884
5890 5890 5889 5889 5888 5888 5886 5883 5880 5877 5874 5871 5868 5864 5860 5858 5857 5854 5851 5850 5849 5848 5848 5850 5851 5854 5857 5861 5865 5868 5871 5873 5876 5877 5879 5880 5881 5882 5882 5882 5883 5883 5883 5883 5883 5883 5883 5884 5884
5888 5888 5888 5887 5886 5886 5885 5882 5876 5873 5872 5870 5866 5863 5860 5856 5854 5852 5849 5847 5847 5845 5845 5848 5848 5851 5855 5859 5862 5865 5868 5872 5874 5876 5878 5879 5880 5881 5881 5881 5882 5882 5882 5883 5883 5883 5883 5883 5883
5886 5886 5886 5884 5884 5885 5884 5881 5876 5872 5871 5869 5865 5861 5857 5854 5852 5850 5848 5846 5846 5844 5844 5845 5845 5849 5852 5856 5859 5863 5866 5870 5873 5875 5876 5878 5879 5880 5880 5881 5881 5881 5882 5882 5883 5883 5883 5883 5883
5884 5884 5884 5883 5883 5885 5885 5880 5874 5872 5869 5867 5864 5860 5856 5853 5850 5848 5846 5844 5843 5842 5841 5841 5842 5846 5850 5853 5857 5861 5864 5868 5871 5873 5875 5876 5878 5879 5879 5880 5880 5881 5881 5882 5882 5883 5883 5883 5883
5883 5883 5882 5883 5882 5884 5883 5879 5874 5871 5869 5866 5863 5858 5855 5852 5849 5846 5844 5842 5840 5839 5839 5840 5841 5843 5847 5850 5854 5858 5862 5865 5868 5871 5873 5875 5876 5877 5878 5879 5880 5880 5881 5882 5882 5882 5882 5882 5882
5882 5882 5881 5881 5882 5882 5881 5878 5874 5870 5868 5865 5861 5857 5854 5850 5847 5844 5842 5839 5837 5837 5837 5838 5839 5841 5844 5848 5851 5855 5859 5863 5866 5869 5871 5873 5875 5876 5877 5878 5879 5880 5880 5881 5881 5881 5882 5882 5882
5881 5881 5882 5881 5881 5880 5879 5876 5874 5870 5866 5863 5860 5856 5853 5849 5846 5843 5840 5837 5835 5835 5835 5835 5836 5838 5841 5845 5848 5853 5857 5860 5864 5867 5869 5871 5873 5874 5876 5877 5878 5879 5880 5880 5880 5881 5881 5882 5882
5878 5878 5879 5879 5878 5877 5875 5874 5871 5867 5863 5862 5859 5855 5852 5848 5845 5842 5839 5836 5834 5834 5833 5833 5833 5835 5839 5843 5846 5850 5854 5857 5861 5864 5867 5869 5871 5873 5874 5876 5877 5878 5879 5879 5880 5880 5881 5882 5882
5874 5874 5875 5875 5874 5873 5873 5871 5866 5863 5861 5859 5857 5854 5851 5847 5844 5841 5838 5835 5834 5832 5832 5832 5832 5834 5837 5840 5844 5847 5851 5855 5859 5862 5864 5867 5869 5871 5872 5874 5876 5877 5878 5879 5879 5880 5881 5881 5882
5870 5871 5871 5871 5871 5871 5870 5867 5864 5861 5857 5854 5854 5853 5850 5847 5843 5840 5837 5834 5832 5831 5831 5831 5831 5833 5835 5838 5842 5845 5849 5853 5856 5859 5862 5864 5866 5868 5870 5872 5874 5876 5877 5878 5879 5879 5880 5881 5881
5866 5867 5867 5868 5867 5866 5866 5865 5863 5859 5856 5853 5853 5851 5849 5846 5843 5839 5836 5833 5831 5830 5829 5829 5830 5832 5834 5837 5839 5843 5847 5850 5854 5857 5859 5862 5864 5866 5869 5871 5872 5874 5875 5876 5877 5878 5879 5880 5880
5862 5863 5863 5863 5864 5864 5863 5862 5860 5857 5857 5854 5853 5851 5848 5845 5842 5839 5836 5833 5831 5829 5829 5829 5830 5831 5833 5835 5837 5841 5845 5848 5851 5854 5857 5859 5862 5864 5867 5868 5870 5872 5873 5874 5875 5876 5877 5878 5878
5859 5860 5860 5861 5861 5860 5858 5856 5856 5855 5855 5854 5852 5850 5847 5845 5842 5839 5836 5833 5831 5829 5828 5828 5829 5831 5832 5834 5836 5839 5843 5846 5849 5852 5855 5857 5860 5862 5864 5866 5868 5869 5871 5872 5873 5874 5875 5876 5876
5855 5857 5858 5859 5858 5856 5854 5852 5852 5853 5853 5852 5850 5848 5846 5844 5841 5839 5836 5833 5831 5829 5829 5828 5829 5830 5831 5833 5835 5838 5841 5844 5847 5850 5852 5855 5857 5859 5862 5863 5865 5867 5868 5869 5870 5871 5872 5873 5873
5851 5853 5856 5856 5855 5854 5852 5851 5850 5850 5849 5849 5848 5846 5845 5843 5841 5838 5836 5833 5831 5830 5829 5828 5829 5830 5831 5833 5834 5837 5839 5842 5844 5847 5849 5852 5854 5857 5859 5861 5862 5864 5865 5866 5867 5868 5869 5869 5870
5848 5849 5852 5852 5852 5851 5852 5850 5847 5845 5845 5845 5845 5844 5843 5842 5840 5838 5836 5834 5832 5830 5829 5829 5829 5830 5831 5832 5833 5835 5837 5839 5842 5844 5846 5849 5851 5853 5855 5857 5858 5860 5861 5862 5863 5864 5865 5865 5865
5845 5846 5846 5848 5849 5849 5849 5850 5845 5842 5840 5840 5841 5841 5841 5839 5838 5836 5835 5833 5832 5830 5829 5829 5829 5829 5830 5831 5833 5834 5836 5838 5839 5841 5844 5846 5848 5850 5851 5853 5854 5856 5857 5858 5859 5860 5860 5860 5860
5841 5842 5843 5844 5844 5845 5845 5847 5842 5839 5836 5836 5837 5838 5838 5838 5836 5835 5834 5833 5831 5830 5829 5829 5828 5828 5828 5830 5831 5833 5834 5836 5838 5839 5841 5843 5844 5846 5847 5849 5850 5852 5852 5853 5854 5854 5855 5855 5855